Dewpoint
55 55 57 58 58 58 58 58 58 59 59 59 60 60 60 60 60 60 60 61 61 61 60 60 60 61 61 61 60 59 57 41 26 26 25 31 49 52 55 57 58 58 58 49 46 28 17 17 19 11 7 14 37 30 34 25 33 38 31 26 22 23 19 21 18 21 23 17 19 20 23 25 27 24 27 27 28 29 28 25 19 17 17 19 20 21 21 22
55 56 57 57 57 58 58 58 58 59 59 59 60 60 60 60 60 60 60 61 61 60 60 60 60 61 61 61 60 59 50 37 25 32 32 42 54 54 53 56 58 58 54 41 23 21 18 10 10 10 1 6 31 28 31 34 22 33 25 23 24 27 25 22 17 18 17 19 22 26 21 20 21 20 21 25 28 29 26 25 20 16 14 15 16 16 17 17
55 56 57 57 57 57 57 58 58 59 59 59 60 60 60 60 60 60 60 61 60 60 59 59 60 60 60 58 59 55 48 29 20 23 28 54 52 55 54 55 56 57 48 40 38 24 20 18 15 11 3 6 8 26 22 32 19 29 27 21 27 24 21 16 17 21 21 19 17 24 22 21 22 21 23 28 26 26 23 22 20 17 13 12 14 15 15 16
56 56 57 57 57 57 57 58 58 59 59 59 59 59 60 60 61 60 60 61 61 60 60 59 60 60 59 59 58 54 36 34 19 22 27 52 52 56 54 54 55 53 47 40 33 24 24 21 18 11 22 13 26 6 26 35 33 29 28 28 26 18 17 15 19 17 18 25 16 19 23 21 23 23 25 27 26 26 22 22 23 18 12 12 13 15 15 14
56 56 57 57 57 57 57 58 58 58 59 59 59 59 60 60 60 60 60 60 60 61 59 60 59 58 59 58 57 46 34 27 23 24 33 50 53 57 56 56 57 54 42 40 36 29 24 19 13 21 36 29 33 29 23 23 20 34 27 22 16 15 13 16 19 19 20 20 20 23 29 20 22 22 25 26 27 24 24 22 25 21 14 13 13 14 14 14
56 56 57 57 56 57 57 58 58 59 59 59 59 60 60 61 61 61 61 61 60 61 61 59 59 58 58 57 54 43 38 16 32 23 51 50 52 53 53 54 55 53 48 40 36 21 18 17 15 23 29 28 20 26 24 16 24 29 27 20 15 17 13 15 18 23 22 21 26 30 20 21 20 20 22 24 25 23 23 25 25 24 22 18 17 16 15 15
56 56 56 56 56 56 57 58 58 58 59 59 60 60 61 61 61 61 61 60 60 59 60 59 58 58 57 53 48 38 20 20 22 25 48 51 51 52 51 51 53 53 51 19 18 20 19 16 16 34 34 30 25 23 23 22 21 33 23 17 16 16 13 17 18 23 21 23 23 23 26 20 21 22 23 21 24 28 29 26 25 26 25 24 21 16 17 15
56 56 56 56 56 56 57 58 58 58 59 59 59 61 61 61 61 61 60 60 60 61 60 58 58 57 57 53 46 25 18 18 21 29 45 49 37 40 46 43 44 42 19 15 17 14 20 14 17 35 27 26 36 34 37 26 31 33 29 20 11 17 16 18 19 19 21 22 22 23 20 19 20 17 19 15 16 19 19 22 25 24 24 22 18 19 20 16
56 56 56 56 56 57 57 58 58 58 58 59 60 61 61 61 60 60 60 60 59 61 59 58 57 57 57 49 36 21 15 19 22 24 24 27 29 34 43 26 34 26 16 17 18 18 14 21 20 21 31 33 25 36 34 37 32 34 29 26 12 12 14 17 16 18 20 19 21 18 16 17 16 17 15 14 14 13 13 12 14 12 12 13 15 17 17 17
56 56 56 56 56 57 58 58 58 58 58 59 60 61 61 60 60 59 59 59 60 59 56 57 56 52 47 39 45 14 17 22 24 24 25 28 29 34 33 31 30 27 20 18 17 19 20 18 19 18 25 25 28 35 35 38 33 35 31 28 15 9 12 16 12 14 19 15 15 16 16 15 16 17 16 18 14 15 12 12 11 14 10 11 16 22 18 15
56 56 56 56 57 57 58 58 58 58 59 59 60 61 61 60 60 59 59 60 60 58 57 56 55 46 21 16 17 14 20 22 24 22 25 29 29 30 29 30 30 26 21 17 19 25 26 24 27 20 43 34 26 29 33 38 36 33 25 28 28 12 11 11 12 13 16 18 15 12 16 17 19 26 17 14 14 13 11 11 11 11 10 10 10 10 12 13
56 56 56 57 57 58 58 58 58 58 58 59 60 60 60 59 60 59 60 60 59 57 57 56 55 46 18 16 15 16 20 22 26 22 25 27 28 31 39 32 29 26 22 19 21 27 27 32 42 43 33 34 27 29 34 37 39 32 30 25 25 27 13 8 8 14 15 16 17 18 20 19 23 21 14 14 13 12 11 11 11 11 10 11 11 10 11 12
56 56 56 56 57 58 58 57 58 59 59 60 60 59 58 59 59 59 58 58 57 55 58 56 54 34 40 22 18 22 31 31 27 22 23 26 27 31 35 31 28 28 26 24 24 28 38 34 30 36 42 38 39 34 32 33 34 36 24 27 30 24 22 11 12 12 10 17 20 28 18 18 17 14 14 14 13 12 11 10 10 11 10 11 11 10 12 12
56 56 56 57 57 57 57 57 58 58 59 59 60 58 58 58 59 58 59 58 55 57 57 58 53 47 29 19 15 23 32 33 17 18 21 25 25 27 28 29 23 24 28 25 25 30 31 27 41 41 42 36 36 37 31 24 36 28 33 28 18 13 15 13 19 17 15 14 16 24 19 17 14 14 15 15 13 11 10 10 9 12 10 10 16 10 11 11
56 56 57 57 57 56 57 57 58 58 59 59 58 57 58 57 58 57 59 58 57 58 56 57 52 50 32 29 19 26 47 35 15 15 23 23 22 23 24 25 24 27 26 22 19 21 21 30 40 35 33 41 37 32 33 32 26 19 21 17 16 14 9 11 24 15 22 15 15 23 18 15 13 14 14 14 14 11 10 9 9 9 9 9 12 8 9 10
56 56 57 57 57 57 57 58 57 57 57 57 58 55 55 57 54 54 55 53 54 56 52 53 47 23 18 14 9 35 18 12 13 15 25 24 22 21 22 24 24 25 23 24 24 28 22 20 31 38 24 37 27 21 25 29 13 17 14 12 10 8 11 17 25 23 25 21 21 25 17 16 13 13 13 14 13 11 10 9 9 9 9 9 8 11 10 12
56 56 56 56 57 57 58 57 56 57 57 57 58 57 50 55 55 55 54 54 51 51 24 33 34 40 22 23 13 9 9 12 16 16 16 24 26 23 21 21 17 18 23 20 21 28 29 20 39 29 28 16 19 22 23 16 14 15 19 11 13 11 14 13 20 32 32 29 18 18 13 11 14 13 13 13 13 12 10 10 9 10 10 11 12 9 9 9
56 56 56 56 57 57 58 57 56 56 56 57 56 55 50 51 51 52 44 56 54 49 52 39 38 41 19 10 10 10 13 13 15 13 15 19 29 21 21 19 20 19 20 18 13 14 15 16 18 16 17 18 20 21 16 7 19 20 19 15 15 19 18 13 11 22 27 28 20 13 8 8 13 12 12 12 13 11 10 9 9 9 9 10 9 10 9 11
56 56 56 56 57 57 57 56 56 56 55 55 58 58 57 55 52 33 34 28 37 33 30 29 25 18 22 14 13 13 15 16 18 10 13 17 20 21 19 18 17 15 29 19 18 13 20 23 29 17 18 17 16 24 21 23 24 24 24 21 22 21 14 11 10 21 29 20 19 12 8 2 14 13 12 12 12 11 10 9 10 9 9 9 10 12 11 14
56 56 56 56 56 57 56 56 55 55 53 55 61 61 54 44 39 32 35 32 26 29 35 40 27 32 7 12 11 15 18 18 6 11 14 18 18 19 16 17 31 33 30 30 30 15 31 19 22 20 21 21 20 25 27 28 28 27 26 25 21 11 10 9 10 14 31 24 15 11 10 10 8 14 13 12 11 10 9 8 9 10 8 11 11 11 13 12
56 56 56 57 56 56 56 56 54 55 54 59 58 51 41 41 33 27 35 32 37 40 34 38 31 17 11 15 14 16 16 14 8 12 17 21 19 26 21 27 34 27 28 36 24 32 22 15 20 25 21 21 23 28 29 21 24 27 26 24 10 12 3 6 7 24 30 25 19 18 17 16 12 10 13 12 11 9 8 7 8 8 11 10 12 15 15 14
56 56 56 57 56 56 56 56 54 55 53 60 45 39 45 42 48 47 44 25 40 41 27 16 13 10 18 19 15 18 19 8 8 11 18 19 18 22 29 20 22 20 20 35 30 17 11 15 20 23 20 27 28 30 24 15 17 24 24 20 11 4 9 10 16 24 21 22 15 14 14 13 13 12 14 12 10 10 8 8 8 9 12 11 12 13 15 14
56 56 56 57 55 56 57 56 55 55 53 52 46 43 45 46 43 50 48 28 32 43 37 34 22 10 13 14 15 19 9 11 15 11 16 18 23 25 33 25 23 26 20 16 14 18 12 16 14 23 27 28 24 29 21 16 17 19 20 12 7 9 10 7 9 16 15 16 14 12 12 14 17 17 14 13 11 10 13 16 18 19 11 11 12 13 15 12
56 56 57 55 56 56 57 55 55 54 49 47 46 46 46 47 46 47 52 34 31 38 40 36 32 18 16 16 20 17 12 18 16 11 19 19 22 30 30 28 29 26 26 29 19 15 17 24 15 28 31 30 26 22 20 16 13 16 22 16 10 8 8 11 9 12 18 19 20 19 19 16 17 14 13 13 14 12 15 15 16 16 20 18 20 17 15 13
55 56 57 56 55 55 55 54 45 48 52 53 47 46 45 48 49 51 49 38 31 34 38 41 39 10 15 24 23 29 20 31 17 16 22 22 25 30 34 37 33 26 31 31 30 22 24 28 28 29 24 17 17 16 23 19 11 10 20 16 9 8 10 11 13 14 10 8 25 25 9 4 11 15 14 13 12 12 14 14 13 15 15 17 13 12 14 12
55 56 56 55 55 54 56 51 51 55 55 45 47 43 47 48 52 50 44 31 20 21 37 28 20 20 24 25 19 41 37 28 22 14 31 25 33 32 33 24 28 27 30 33 22 18 25 27 26 23 17 17 18 14 23 20 12 14 17 16 12 12 15 16 15 15 11 8 6 22 9 9 7 -2 8 13 13 12 12 14 13 13 13 13 10 7 4 3
54 55 55 55 54 55 53 46 52 55 52 51 48 46 47 49 51 54 47 24 19 26 26 37 31 31 38 27 24 41 9 18 16 23 22 27 30 38 34 25 32 34 33 30 28 11 28 28 22 24 13 11 8 3 12 15 16 8 20 16 16 16 16 17 17 17 12 15 16 14 11 -5 -6 -7 15 15 14 13 13 13 14 14 11 7 5 5 4 4
55 54 55 55 53 52 53 50 55 52 49 50 46 46 47 48 54 50 36 4 2 30 29 28 32 32 27 33 21 16 20 26 28 16 26 35 27 37 31 30 26 25 31 29 14 21 28 26 28 26 20 7 5 7 16 24 12 11 20 19 15 18 17 17 18 16 16 12 10 8 5 -8 -4 -6 9 16 14 12 13 14 15 13 9 6 7 7 4 3
53 53 54 54 53 52 57 57 55 53 48 48 48 48 53 52 48 46 29 6 21 29 38 27 41 24 25 36 24 29 31 29 25 28 30 35 24 34 19 32 33 27 33 34 11 17 30 23 28 32 15 6 15 10 15 23 20 22 19 21 21 18 13 12 14 16 14 7 8 4 -2 -5 -5 -2 -3 16 15 14 14 15 14 10 8 7 8 6 4 3
51 52 54 53 55 59 55 55 48 50 47 49 50 52 52 51 44 28 13 1 32 22 33 34 27 22 32 27 31 25 24 28 31 29 32 28 21 26 33 35 34 31 19 29 25 25 27 36 35 31 20 19 14 14 21 21 23 23 24 19 10 9 5 -2 19 16 12 9 2 2 -3 -2 0 -1 8 15 18 14 17 15 11 10 8 6 8 4 4 3
48 49 51 52 54 53 47 43 49 48 50 50 51 49 50 45 26 15 1 17 34 32 38 34 31 35 29 23 22 25 31 28 26 29 26 28 23 24 25 27 29 26 21 19 19 27 29 27 33 28 33 28 21 13 25 27 29 26 15 6 6 -1 -1 -0 6 4 0 -2 0 -4 -1 3 -1 -1 15 16 16 16 15 11 9 7 3 2 4 4 4 3
49 47 49 49 52 54 49 50 48 50 51 49 50 52 39 24 22 12 14 40 28 25 23 19 30 29 29 28 23 21 20 27 26 28 24 20 22 18 19 18 21 16 9 14 14 22 20 15 23 31 29 24 20 8 9 13 15 11 2 6 4 -2 1 -5 -3 -3 -2 -2 -3 -2 2 -1 -3 -2 14 17 15 14 13 16 10 6 2 0 2 3 4 3
50 49 47 45 46 48 49 49 49 48 49 49 50 43 33 15 3 13 15 20 18 28 27 30 29 29 27 29 22 25 28 21 26 24 28 25 25 25 25 24 25 20 9 16 13 6 14 22 20 23 26 23 18 -1 2 -0 3 8 -2 8 3 -2 -2 -6 -5 -2 -1 -0 2 -2 4 -3 -0 2 13 12 14 13 11 11 9 4 -0 -0 2 3 2 0
51 51 51 45 45 45 48 49 47 48 50 49 46 42 24 13 2 27 16 18 23 30 31 29 28 28 28 13 21 25 16 26 24 22 24 16 16 17 18 23 24 22 18 16 -6 3 3 4 18 18 10 19 16 9 12 8 10 4 10 8 5 2 -2 -3 -2 -3 -0 2 -2 0 1 -0 1 15 14 12 15 14 10 10 8 6 -0 2 2 0 -2 -2
51 52 51 51 51 49 49 48 50 48 49 42 45 24 16 9 9 15 17 18 24 29 26 31 28 26 25 24 25 25 21 15 25 22 19 15 12 13 19 18 24 24 23 19 12 12 9 5 21 23 18 16 18 24 25 19 15 7 8 13 7 5 6 4 3 3 4 -1 -3 -0 -2 2 1 12 15 15 13 14 11 3 -2 -7 1 2 1 -1 -2 -2
52 55 56 50 47 49 50 50 50 47 50 47 26 18 17 19 13 16 25 31 28 25 24 29 26 21 11 15 21 19 32 17 21 20 17 19 23 18 24 25 22 24 19 16 13 9 12 -0 17 23 23 8 9 18 20 22 5 7 9 7 6 11 8 8 8 2 -3 -1 -3 1 3 2 0 -0 13 14 4 4 1 -4 -7 -3 -0 -1 -2 -4 -5 -3
53 53 47 50 47 51 46 50 49 50 45 39 23 18 21 21 28 27 30 28 29 28 27 14 17 17 15 16 14 16 19 26 20 16 4 22 17 23 22 26 28 24 22 16 19 14 11 7 14 20 15 16 15 18 22 25 16 13 7 7 16 15 12 8 -1 -2 -2 -4 -3 1 1 1 2 -1 9 4 1 -0 -3 -6 -7 -1 -2 -4 -4 -4 -3 -3
50 50 49 48 47 51 47 45 49 48 44 21 22 23 25 24 30 32 31 31 30 30 24 16 16 24 16 13 13 13 19 18 15 14 14 18 14 24 22 21 25 21 22 25 19 17 17 14 10 14 11 22 22 22 21 20 22 14 10 16 10 5 6 2 -1 -5 -4 -3 -3 -2 1 0 2 4 4 2 -1 -4 -7 -8 -3 -2 -3 -4 -6 -6 -5 -4
53 49 43 48 52 52 53 46 47 52 39 24 24 24 29 30 32 32 31 33 33 29 14 18 18 19 19 17 11 15 16 16 16 12 13 16 13 26 22 25 23 24 24 27 21 18 21 14 14 17 4 5 9 13 4 1 23 21 20 11 15 8 8 4 1 3 3 -5 -6 -7 -2 -4 4 6 4 -1 -4 -7 -8 -5 -2 -2 -3 -4 -5 -5 -4 -3
46 46 32 52 49 53 51 53 38 27 25 24 24 26 29 31 33 32 32 34 28 27 17 17 23 18 18 19 17 15 18 21 11 13 16 20 18 26 21 23 21 23 25 27 23 22 15 12 11 8 12 13 0 3 1 -2 7 7 6 10 12 9 9 10 9 2 -1 -5 -6 -6 -6 -4 -0 3 0 -0 -5 -6 -7 -2 -2 -2 -4 -5 -7 -5 -4 -4
43 45 38 49 45 49 56 37 24 22 23 23 27 30 32 30 32 33 36 34 35 34 27 27 23 20 21 22 16 22 17 14 15 14 13 21 18 17 27 23 26 22 24 26 21 17 13 11 10 4 6 -5 8 11 9 3 4 5 8 9 11 9 9 5 1 4 -1 -1 -3 -5 -5 1 3 -1 7 -3 -7 -5 -3 -1 -1 0 -3 -4 -6 -5 -5 -4
41 28 32 42 47 48 40 25 26 21 27 25 26 34 30 33 31 32 32 32 33 25 30 28 26 27 22 24 23 21 19 17 17 17 19 17 24 19 27 30 29 27 23 19 17 21 18 16 13 15 -1 -1 7 9 17 19 17 16 10 10 10 11 10 6 2 1 5 4 4 4 2 -0 3 1 1 -7 -7 -4 -1 -1 -1 -3 -6 -6 -4 -3 -4 -6
37 30 45 49 49 49 28 24 25 27 25 28 34 31 32 30 27 27 30 31 30 31 29 28 28 27 28 26 26 22 22 16 19 13 19 23 22 26 30 31 30 29 26 21 20 23 24 14 8 2 1 10 15 18 13 15 20 16 11 11 12 9 10 11 10 10 7 6 4 -0 -3 -2 -1 1 -4 -6 -4 -1 -1 -2 -4 -6 -4 -4 -4 -5 -6 -5
33 29 36 36 45 48 31 24 24 24 24 30 30 28 35 33 31 30 29 30 29 24 27 23 30 28 25 28 21 20 22 15 22 20 17 21 23 30 30 30 30 20 18 14 18 22 15 5 4 1 -1 -2 -2 4 7 16 18 -2 3 10 13 14 12 11 11 11 7 2 -1 -2 -4 -2 1 -3 -6 -7 -1 -0 -2 -5 -7 -7 -6 -4 -4 -5 -7 -6
31 37 33 31 29 32 29 33 23 25 23 26 25 26 30 29 32 31 32 30 30 25 26 24 26 28 27 26 26 23 22 15 13 20 12 18 22 31 31 31 29 23 27 28 26 23 22 16 4 -1 -5 -6 -6 -5 -3 -1 2 -1 8 8 14 13 10 11 7 6 3 2 2 1 -0 -1 -4 -7 -7 -3 1 -2 -4 -5 -3 -4 -4 -4 -3 -6 -6 -2
33 21 31 27 30 29 29 29 28 25 25 23 21 22 23 25 28 31 34 28 28 30 20 27 26 19 22 26 25 22 19 22 18 14 14 16 23 29 29 32 29 27 28 30 27 24 20 15 4 2 -1 0 1 3 2 6 2 5 8 8 9 15 12 9 10 5 1 3 1 -2 -2 -6 -7 -6 -5 1 -1 -4 -7 -5 -4 -4 -4 -5 -5 -3 -1 -0
32 30 28 23 35 25 24 31 31 26 25 27 18 20 19 23 24 30 35 25 29 29 28 27 29 26 23 24 22 22 19 19 20 16 12 15 16 23 29 30 29 29 29 28 28 20 14 9 11 10 4 4 2 2 5 8 4 2 0 5 7 13 11 8 6 3 5 -1 -7 -5 -8 -4 -5 -4 -2 -0 -3 -5 -5 -4 -3 -4 -5 -5 -6 -5 7 -0
25 27 31 30 35 29 29 23 33 31 32 26 22 26 22 20 22 18 28 25 27 24 26 25 27 27 25 24 25 17 19 19 21 18 13 15 18 21 24 26 24 29 28 21 19 11 6 8 15 6 6 10 9 8 8 5 -4 -6 -2 1 4 8 7 3 3 2 -2 -3 -7 -8 -7 -4 -4 -2 -0 -3 -7 -7 -4 -3 -5 -4 -4 -5 -4 -3 -4 -2
31 24 31 33 28 21 30 30 35 32 29 26 22 26 21 21 23 25 27 24 26 21 25 20 27 26 26 26 24 16 21 13 16 22 17 19 22 19 20 22 24 24 17 11 16 17 15 11 12 12 11 10 9 10 6 -3 -4 -2 5 5 4 2 2 4 1 -2 -3 -4 -7 -6 -5 -3 -2 -0 -2 -7 -6 -4 -3 -4 -6 -5 -5 -3 -4 -5 -4 -0
25 28 21 32 27 22 20 23 29 36 24 27 19 25 27 26 24 26 27 27 22 25 25 25 27 28 29 26 24 20 24 26 24 19 17 21 20 19 16 17 18 15 15 14 15 12 15 5 9 11 10 8 9 5 2 -2 -3 -4 6 4 -4 -4 -4 -3 -1 -3 -5 -6 -5 -3 -1 -1 1 -0 -2 -4 -4 -2 -4 -6 -6 -7 -7 -4 -3 -4 -3 -1
32 32 31 23 19 20 22 23 27 28 21 22 22 27 29 27 27 28 28 30 30 29 29 28 29 27 26 26 24 28 28 26 27 25 24 24 21 22 20 19 21 21 15 15 15 17 10 9 11 12 8 5 2 -2 -2 -3 -4 -2 -2 -1 -6 -5 -1 -5 -2 -4 -2 -2 -2 -1 -1 0 1 -4 -6 -5 -3 -4 -6 -7 -5 -3 -4 -2 -5 -5 -2 0
35 34 39 36 20 19 21 20 24 28 22 28 33 33 32 31 30 30 24 33 31 32 31 31 30 27 26 23 26 28 28 26 27 25 23 22 20 19 19 18 16 16 13 12 15 15 11 13 12 10 6 3 0 1 -2 -3 -1 6 3 -5 -6 -6 -6 -5 -5 -5 -5 -5 -1 -2 -0 -0 -4 -4 -6 -4 -6 -7 -5 -4 -2 -1 -2 -5 -4 -1 1 1